BLOCK DM-SL R/B

基本信息
目录编号:
32405
目录名称:
BLOCK DM-SL R/B
国际标识:
2008-001B
轨道中心:
EARTH
物体状态:
在轨
发射日期:
2008-01-15 UTC
国别:
(SEAL)
轨道信息
数据来源: 国际轨道数据
星历时间: 2026-07-13T23:18:22+0800
半长轴: 24584.736km
偏心率: 0.7125023
轨道倾角: 6.165°
近地点辐角: 352.479°
升交点赤经: 337.359°
平近点角: 294.796°
近地点: 689.918km
远地点: 35723.28km
周期: 639.379分钟
每日圈数: 2.252187
详细信息
发射场:
SEAL
轨道高度:
LEO
数据来源:
AOE Integration Group
参考系:
TEME
时间系统:
UTC
历元类型:
SGP4
2D轨道图
3D轨道图
轨道高度分析图
轨道倾角分析图
轨道综合分析图
查看轨道综合分析图